• Em Portugal
  • Lista de países
  • Para 7 dias
  • Temperatura da água
  • Mapas de satélite
  • Mapa do tempo
  • Widgets de tempo
  • user-avatar
    Iniciar Sessão

    Previsão horária em Dipayal

    Hoje, 23 Junho, Sábado

    Tempo Temperatura Precipitação Vento Pressão Humidade
    00:00 +29°C° 0 mm 1 m/s 699 mmHg 64%
    01:00 +29°C° 0 mm 1 m/s 699 mmHg 64%
    02:00 +28°C° 0 mm 1 m/s 699 mmHg 63%
    03:00 +28°C° 0,1 mm 1 m/s 699 mmHg 63%
    04:00 +28°C° 0,1 mm 1 m/s 699 mmHg 63%
    05:00 +28°C° 0 mm 1 m/s 698 mmHg 62%
    06:00 +30°C° 0 mm 1 m/s 699 mmHg 57%
    07:00 +33°C° 0 mm 1 m/s 699 mmHg 51%
    08:00 +35°C° 0 mm 1 m/s 699 mmHg 46%
    09:00 +36°C° 0 mm 1 m/s 699 mmHg 42%
    10:00 +38°C° 0 mm 2 m/s 699 mmHg 39%
    11:00 +39°C° 0 mm 2 m/s 698 mmHg 35%
    12:00 +39°C° 0 mm 2 m/s 698 mmHg 36%
    13:00 +39°C° 0 mm 2 m/s 698 mmHg 38%
    14:00 +39°C° 0 mm 2 m/s 697 mmHg 39%
    15:00 +38°C° 0 mm 2 m/s 697 mmHg 39%
    16:00 +38°C° 0 mm 2 m/s 697 mmHg 40%
    17:00 +37°C° 0 mm 1 m/s 697 mmHg 40%
    18:00 +35°C° 0 mm 1 m/s 697 mmHg 45%
    19:00 +33°C° 0 mm 1 m/s 697 mmHg 50%
    20:00 +31°C° 0 mm 1 m/s 697 mmHg 55%
    21:00 +31°C° 0 mm 1 m/s 697 mmHg 56%
    22:00 +30°C° 0 mm 2 m/s 697 mmHg 56%
    23:00 +30°C° 0 mm 2 m/s 697 mmHg 57%

    Amanhã, 24 Junho, Domingo

    Tempo Temperatura Precipitação Vento Pressão Humidade
    00:00 +29°C° 0 mm 2 m/s 697 mmHg 56%
    01:00 +29°C° 0 mm 2 m/s 697 mmHg 55%
    02:00 +29°C° 0 mm 2 m/s 697 mmHg 54%
    03:00 +29°C° 0 mm 2 m/s 697 mmHg 53%
    04:00 +28°C° 0 mm 2 m/s 697 mmHg 52%
    05:00 +28°C° 0 mm 2 m/s 697 mmHg 51%
    06:00 +31°C° 0 mm 1 m/s 697 mmHg 44%
    07:00 +34°C° 0 mm 1 m/s 697 mmHg 38%
    08:00 +39°C° 0 mm 1 m/s 698 mmHg 32%
    09:00 +40°C° 0 mm 1 m/s 698 mmHg 30%
    10:00 +41°C° 0 mm 2 m/s 697 mmHg 28%
    11:00 +42°C° 0 mm 2 m/s 697 mmHg 26%
    12:00 +43°C° 0 mm 3 m/s 697 mmHg 26%
    13:00 +43°C° 0 mm 3 m/s 696 mmHg 26%
    14:00 +43°C° 0 mm 3 m/s 696 mmHg 26%
    15:00 +41°C° 0 mm 2 m/s 696 mmHg 27%
    16:00 +40°C° 0 mm 2 m/s 695 mmHg 29%
    17:00 +39°C° 0 mm 1 m/s 695 mmHg 30%
    18:00 +37°C° 0 mm 2 m/s 696 mmHg 34%
    19:00 +35°C° 0 mm 2 m/s 696 mmHg 38%
    20:00 +32°C° 0 mm 2 m/s 696 mmHg 42%
    21:00 +31°C° 0 mm 2 m/s 696 mmHg 43%
    22:00 +31°C° 0 mm 2 m/s 696 mmHg 44%
    23:00 +30°C° 0 mm 2 m/s 696 mmHg 44%

    Depois de amanhã, 25 Junho, Segunda-feira

    Tempo Temperatura Precipitação Vento Pressão Humidade
    00:00 +30°C° 0 mm 2 m/s 696 mmHg 44%
    01:00 +29°C° 0 mm 2 m/s 696 mmHg 44%
    02:00 +29°C° 0 mm 2 m/s 696 mmHg 43%
    03:00 +29°C° 0 mm 2 m/s 696 mmHg 44%
    04:00 +28°C° 0 mm 2 m/s 696 mmHg 44%
    05:00 +28°C° 0 mm 2 m/s 696 mmHg 45%
    06:00 +31°C° 0 mm 1 m/s 696 mmHg 40%
    07:00 +34°C° 0 mm 1 m/s 696 mmHg 35%
    08:00 +37°C° 0 mm 1 m/s 697 mmHg 31%
    09:00 +39°C° 0 mm 1 m/s 696 mmHg 30%
    10:00 +40°C° 0 mm 2 m/s 696 mmHg 30%
    11:00 +42°C° 0 mm 3 m/s 696 mmHg 29%
    12:00 +42°C° 0 mm 3 m/s 695 mmHg 31%
    13:00 +42°C° 0 mm 3 m/s 695 mmHg 33%
    14:00 +40°C° 0 mm 3 m/s 694 mmHg 35%
    15:00 +40°C° 0 mm 2 m/s 694 mmHg 38%
    16:00 +39°C° 0 mm 2 m/s 694 mmHg 41%
    17:00 +38°C° 0 mm 2 m/s 694 mmHg 44%
    18:00 +35°C° 0,4 mm 1 m/s 695 mmHg 52%
    19:00 +33°C° 0,4 mm 1 m/s 695 mmHg 60%
    20:00 +31°C° 0,4 mm 1 m/s 695 mmHg 68%
    21:00 +31°C° 0 mm 1 m/s 695 mmHg 67%
    22:00 +30°C° 0 mm 1 m/s 696 mmHg 66%
    23:00 +30°C° 0 mm 1 m/s 696 mmHg 66%

    26 Junho, Terça-feira

    Tempo Temperatura Precipitação Vento Pressão Humidade
    00:00 +29°C° 0,1 mm 1 m/s 695 mmHg 65%
    01:00 +29°C° 0,1 mm 1 m/s 695 mmHg 65%
    02:00 +29°C° 0,1 mm 1 m/s 695 mmHg 65%
    03:00 +28°C° 0,4 mm 1 m/s 695 mmHg 65%
    04:00 +28°C° 0,4 mm 1 m/s 695 mmHg 66%
    05:00 +27°C° 0,4 mm 1 m/s 695 mmHg 67%
    06:00 +30°C° 0,3 mm 1 m/s 695 mmHg 63%
    07:00 +32°C° 0,3 mm 1 m/s 696 mmHg 58%
    08:00 +34°C° 0,3 mm 1 m/s 696 mmHg 54%
    09:00 +36°C° 0,3 mm 2 m/s 696 mmHg 50%
    10:00 +38°C° 0,3 mm 2 m/s 696 mmHg 46%
    11:00 +39°C° 0,3 mm 2 m/s 696 mmHg 42%
    12:00 +39°C° 0,3 mm 2 m/s 696 mmHg 43%
    13:00 +39°C° 0,3 mm 2 m/s 696 mmHg 43%
    14:00 +39°C° 0,3 mm 3 m/s 695 mmHg 44%
    15:00 +38°C° 1 mm 2 m/s 695 mmHg 50%
    16:00 +36°C° 1 mm 2 m/s 695 mmHg 57%
    17:00 +35°C° 1 mm 2 m/s 695 mmHg 63%
    18:00 +32°C° 1,5 mm 1 m/s 695 mmHg 69%
    19:00 +31°C° 1,5 mm 1 m/s 696 mmHg 76%
    20:00 +29°C° 1,5 mm 1 m/s 696 mmHg 83%
    21:00 +29°C° 0,8 mm 1 m/s 696 mmHg 83%
    22:00 +29°C° 0,8 mm 1 m/s 697 mmHg 83%
    23:00 +29°C° 0,8 mm 1 m/s 697 mmHg 84%

    27 Junho, Quarta-feira

    Tempo Temperatura Precipitação Vento Pressão Humidade
    00:00 +28°C° 1,3 mm 1 m/s 697 mmHg 84%
    01:00 +28°C° 1,3 mm 1 m/s 696 mmHg 84%
    02:00 +28°C° 1,3 mm 1 m/s 696 mmHg 84%
    03:00 +28°C° 0,8 mm 1 m/s 696 mmHg 85%
    04:00 +28°C° 0,8 mm 1 m/s 696 mmHg 85%
    05:00 +27°C° 0,8 mm 1 m/s 696 mmHg 86%
    06:00 +29°C° 0,4 mm 1 m/s 697 mmHg 81%
    07:00 +30°C° 0,4 mm 1 m/s 697 mmHg 76%
    08:00 +31°C° 0,4 mm 1 m/s 698 mmHg 71%
    09:00 +32°C° 0,6 mm 1 m/s 698 mmHg 68%
    10:00 +34°C° 0,6 mm 2 m/s 697 mmHg 64%
    11:00 +35°C° 0,6 mm 2 m/s 697 mmHg 60%
    12:00 +35°C° 1,1 mm 2 m/s 697 mmHg 63%
    13:00 +34°C° 1,1 mm 2 m/s 697 mmHg 67%
    14:00 +34°C° 1,1 mm 2 m/s 697 mmHg 70%
    15:00 +32°C° 0,9 mm 2 m/s 697 mmHg 72%
    16:00 +32°C° 0,9 mm 2 m/s 697 mmHg 73%
    17:00 +31°C° 0,9 mm 1 m/s 697 mmHg 75%
    18:00 +30°C° 0,4 mm 1 m/s 697 mmHg 78%
    19:00 +29°C° 0,4 mm 1 m/s 697 mmHg 82%
    20:00 +28°C° 0,4 mm 1 m/s 697 mmHg 86%
    21:00 +28°C° 0,1 mm 1 m/s 697 mmHg 85%
    22:00 +28°C° 0,1 mm 1 m/s 698 mmHg 84%
    23:00 +26°C° 0,1 mm 0 m/s 698 mmHg 83%

    28 Junho, Quinta-feira

    Tempo Temperatura Precipitação Vento Pressão Humidade
    00:00 +28°C° 0,7 mm 1 m/s 698 mmHg 84%
    01:00 +27°C° 0,7 mm 1 m/s 698 mmHg 85%
    02:00 +27°C° 0,7 mm 1 m/s 698 mmHg 86%
    03:00 +27°C° 0,5 mm 1 m/s 698 mmHg 86%
    04:00 +27°C° 0,5 mm 1 m/s 698 mmHg 85%
    05:00 +27°C° 0,5 mm 1 m/s 698 mmHg 84%
    06:00 +29°C° 0,2 mm 1 m/s 698 mmHg 78%
    07:00 +30°C° 0,2 mm 1 m/s 698 mmHg 73%
    08:00 +32°C° 0,2 mm 1 m/s 699 mmHg 67%
    09:00 +33°C° 0,1 mm 1 m/s 698 mmHg 62%
    10:00 +34°C° 0,1 mm 1 m/s 698 mmHg 57%
    11:00 +36°C° 0,1 mm 2 m/s 698 mmHg 53%
    12:00 +36°C° 0,7 mm 2 m/s 698 mmHg 55%
    13:00 +36°C° 0,7 mm 2 m/s 697 mmHg 58%
    14:00 +35°C° 0,7 mm 2 m/s 697 mmHg 61%
    15:00 +34°C° 1,3 mm 2 m/s 697 mmHg 66%
    16:00 +33°C° 1,3 mm 1 m/s 697 mmHg 70%
    17:00 +32°C° 1,3 mm 1 m/s 696 mmHg 75%
    18:00 +31°C° 1,2 mm 1 m/s 697 mmHg 79%
    19:00 +30°C° 1,2 mm 1 m/s 697 mmHg 83%
    20:00 +27°C° 1,2 mm 0 m/s 698 mmHg 87%
    21:00 +27°C° 1,3 mm 0 m/s 698 mmHg 88%
    22:00 +26°C° 1,3 mm 0 m/s 698 mmHg 89%
    23:00 +26°C° 1,3 mm 0 m/s 698 mmHg 89%
    Mostrar mais